Location: East Horndon
(51.5667°N, 0.3500°E)
Time: 23:39:23
(UTC+00:00)

Okean 2 Rocket - Pass Details

Date: 08 November 2025
Orbit: 610 x 635 km, 82.5° (Epoch: 04 December)

Event Time Altitude Azimuth Distance (km) Brightness Sun altitude
Rises 06:21:52 0° 350° (N) 2,894 6.2 -7.0°
Reaches altitude 10° 06:24:06 10° 352° (N) 1,982 5.4 -6.7°
Maximum altitude 06:28:30 77° 79° (E) 634 3.3 -6.1°
Drops below altitude 10° 06:32:50 10° 166° (SSE) 1,964 6.2 -5.4°
Sets 06:35:03 0° 167° (SSE) 2,864 7.0 -5.1°
